Location: Bacea
(45.9500°N, 22.6667°E)
Time: 12:40:11
(UTC+00:00)

Cosmos 1953 - Visible Passes

Search period start: 29 May 2022 00:00
Search period end: 08 June 2022 00:00
Orbit: 536 x 553 km, 82.5° (Epoch: 28 May)

Date Brightness Start Highest point End Pass type
(mag) Time Alt. Az. Time Alt. Az. Time Alt. Az.
29 May 4.0 21:47:05 10° NNE 21:50:20 23° ENE 21:51:01 22° E visible
29 May 3.5 23:23:11 10° NNW 23:26:36 29° W 23:26:36 29° W visible
30 May 3.9 21:41:00 10° NNE 21:44:19 24° ENE 21:44:58 23° E visible
30 May 3.6 23:17:11 10° NNW 23:20:34 27° W 23:20:34 27° W visible
31 May 3.8 21:34:55 10° NNE 21:38:16 25° ENE 21:38:56 24° E visible
31 May 3.7 23:11:10 10° NNW 23:14:32 26° W 23:14:32 26° W visible
01 Jun 3.7 21:28:49 10° NNE 21:32:13 26° ENE 21:32:54 25° E visible
01 Jun 3.7 23:05:09 10° NNW 23:08:27 25° W 23:08:30 25° W visible
02 Jun 3.7 21:22:44 10° NNE 21:26:11 27° ENE 21:26:52 26° E visible
02 Jun 3.8 22:59:08 10° NW 23:02:23 24° W 23:02:29 24° W visible
03 Jun 3.6 21:16:38 10° NNE 21:20:08 28° ENE 21:20:51 26° E visible
03 Jun 3.9 22:53:07 10° NW 22:56:18 23° W 22:56:27 23° W visible
04 Jun 3.5 21:10:32 10° NNE 21:14:03 29° ENE 21:14:50 27° E visible
04 Jun 3.9 22:47:05 10° NW 22:50:12 22° W 22:50:26 22° W visible
05 Jun 3.4 21:04:25 10° N 21:07:59 30° ENE 21:08:49 28° E visible
05 Jun 4.0 22:41:04 10° NW 22:44:07 21° W 22:44:25 21° W visible
06 Jun 3.4 20:58:18 10° N 21:01:54 32° ENE 21:02:49 28° ESE visible
06 Jun 4.1 22:35:02 10° NW 22:38:01 20° W 22:38:25 20° W visible
07 Jun 3.3 20:52:11 10° N 20:55:49 33° ENE 20:56:49 29° ESE visible
07 Jun 4.1 22:29:00 10° NW 22:31:54 20° W 22:32:25 19° W visible
